Location: Bayou Vista
(29.6905°N, 91.2709°W)
Time: 05:01:37
(UTC+00:00)

Transit 4A - Pass Details

Date: 12 August 2024
Orbit: 867 x 976 km, 66.8° (Epoch: 09 September)

Event Time Altitude Azimuth Distance (km) Brightness Sun altitude
Rises 02:08:31 0° 337° (NNW) 3,575 11.8 -16.7°
Reaches altitude 10° 02:11:01 10° 338° (NNW) 2,645 11.0 -17.2°
Maximum altitude 02:17:12 79° 65° (ENE) 972 7.9 -18.4°
Enters shadow 02:20:49 27° 149° (SSE) 1,739 8.8 -19.0°
